C/2018 N2 ( ASASSN )

Japanese version
Home page
Updated on January 23, 2021

---------------------------------------------------------------------

* Profile

Discovery Date July 7, 2018
Magnitude 16.4 mag
Discoverer All-Sky Automated Survey for Supernovae (ASASSN) program

* Pictures

* Orbital Elements

Epoch 2019 Nov. 13.0 TT = JDT 2458800.5
T 2019 Nov. 10.96008 TT                                 Rudenko
q   3.1246460            (2000.0)            P               Q
z  -0.0000515      Peri.   24.39562     +0.78558723     -0.45744316
 +/-0.0000003      Node    25.25926     +0.27011802     -0.35227687
e   1.0001610      Incl.   77.53197     +0.55667670     +0.81648439
From 3600 observations 2018 July 7-2020 Oct. 12, mean residual 0".6.

* Finding Charts

* Magnitudes Graph

        m1 = 4.7 + 5 log d + 10.0 log r(t + 70)

---------------------------------------------------------------------

The orbital elements are published on M.P.E.C. 2020-U96.
The charts are made with StellaNavigator Ver.10 (AstroArts).
The magnitudes graphs are made with Comet for Windows.

---------------------------------------------------------------------

Copyright(C) Seiichi Yoshida (comet@aerith.net). All rights reserved.